Location: Buisson
(44.2787°N, 4.9969°E)
Time: 02:26:34
(UTC+00:00)

BREEZE-M R/B - Pass Details

Date: 18 April 2021
Orbit: 311 x 4505 km, 49.7° (Epoch: 07 May)

Event Time Altitude Azimuth Distance (km) Brightness Sun altitude
Exits shadow 01:44:48 58° 342° (NNW) 840 3.7 -28.0°
Maximum altitude 01:44:55 58° 349° (N) 848 3.8 -28.0°
Drops below altitude 10° 01:52:14 10° 68° (ENE) 3,402 7.6 -27.2°
Sets 01:56:39 0° 72° (ENE) 5,099 8.6 -26.7°
